Location: Elstree
(51.6403°N, 0.2969°W)
Time: 21:20:48
(UTC+00:00)

SJ 16-02 - Pass Details

Date: 03 March 2021
Orbit: 605 x 617 km, 75.0° (Epoch: 16 April)

Event Time Altitude Azimuth Distance (km) Brightness Sun altitude
Rises 19:32:37 0° 341° (NNW) 2,884 5.2 -17.4°
Reaches altitude 10° 19:35:01 10° 350° (N) 1,977 4.2 -17.7°
Maximum altitude 19:39:07 37° 58° (ENE) 967 2.0 -18.4°
Enters shadow 19:39:33 36° 72° (ENE) 984 1.9 -18.4°
